www.pogodaiklimat.ru

Погода и климат >> Архив погоды >> Россия >> Хабаровский край >> Георгиевка


ПОГОДА в Георгиевке

  • Прогноз погоды в Георгиевке
  • Монитор погоды в Георгиевке
  • Климат города

АРХИВ ПОГОДЫ в Георгиевке

Время (UTC), дата Ветер
(напр.,м/с)
 
Видим.   Явления Облачность Т
(С)
Тd
(С)
f
(%)
Тe
(С)
Тes
(С)
Комфортность P
(гПа)
Po
(гПа)
Тmin
(С)
Tmax
(С)
R
(мм)
R24
(мм)
S
(см)
00 12.12 СЗ 2 20 км 10/0
[As op]
-14.1 -16.9 79 -19 -19 1007.6 998.4
03 12.12 С 4 20 км 10/0
[As op]
-12.6 -17.4 67 -20 -20 1008.8 999.6
06 12.12 З 1 4000 м слабый снег 10 баллов -11.4 -13.8 82 -14 -14 1011.9 1002.7
09 12.12 З 2 4000 м слабый снег 10 баллов -11.6 -14.7 78 -16 -16 1014.5 1005.3 -11.3 0.2
12 12.12 ЮЗ 3 10 км 10 баллов -15.1 -18.1 78 -22 -22 1016.1 1006.7
15 12.12 ЮЗ 4 4000 м слабый снег 10/0
[As op]
-17.0 -20.6 74 -25 -25 1017.3 1007.8
18 12.12 ЮЗ 3 4000 м слабый снег 10/0
[As op]
-18.2 -21.4 76 -25 -25 1018.7 1009.2
21 12.12 ЮЗ 2 4000 м слабый снег {метель} 10/0
[As op]
-18.6 -21.2 80 -24 -24 1020.7 1011.2 -18.6 1 16
00 13.12 ЮЗ 2 4000 м слабый снег 10 баллов -18.1 -20.5 81 -24 -24 1024.2 1014.7 -18.6
03 13.12 ЮЗ 3 4000 м слабый снег 10/0
[As op]
-17.0 -19.7 79 -24 -24 1023.8 1014.3
06 13.12 ЮЗ 2 4000 м слабый снег 10/0
[As op]
-16.1 -18.4 82 -21 -21 1025.6 1016.1
09 13.12 ЮЗ 1 4000 м слабый снег 10 баллов -15.8 -17.9 84 -18 -18 1028.2 1018.7 -15.8 3
12 13.12 ЮЗ 2 4000 м слабый снег 10 баллов -15.5 -17.6 84 -21 -21 1029.5 1020.0
15 13.12 Ю 1 4000 м слабый снег 10/0
[As op]
-15.5 -17.3 86 -18 -18 1029.7 1020.2
18 13.12 Ю 1 4000 м слабый снег 10/0
[As op]
-14.9 -16.6 87 -17 -17 1030.0 1020.5
21 13.12 Ю 1 4000 м слабый снег 10/0
[As op]
-14.8 -16.4 88 -17 -17 1030.2 1020.7 -15.8 0.8 25
00 14.12 Ю 1 4000 м слабый снег 10 баллов -14.6 -16.6 85 -17 -17 1032.2 1022.7
03 14.12 ЮЗ 3 4000 м слабый снег 10/0
[As op]
-13.6 -16.4 79 -20 -20 1029.5 1020.1
06 14.12 ЮЗ 2 4000 м слабый снег 10/0
[As op]
-13.8 -16.2 82 -19 -19 1028.8 1019.4
09 14.12 ЮЗ 3 4000 м слабый снег 10 баллов -14.7 -16.9 83 -21 -21 1029.5 1020.0 -13.3 1
12 14.12 Ю 1 10 км {снег} ясно -16.2 -18.8 80 -19 -19 1027.9 1018.4
15 14.12 Ю 1 10 км ясно -16.3 -21.9 62 -19 -19 1027.0 1017.5
18 14.12 Ю 2 10 км ясно -19.2 -21.4 83 -25 -25 1026.5 1016.9
21 14.12 штиль 0 10 км ясно -25.4 -27.8 80 -25 -25 1027.2 1017.3 -25.5 0.0
00 15.12 ЮВ 1 20 км ясно -24.4 -27.0 79 -28 -27 1025.3 1015.5 -28.3
03 15.12 Ю 2 20 км 8/0
[Ac lent Ci]
-15.0 -21.4 58 -20 -19 1023.4 1014.0
06 15.12 ЮЗ 1 20 км 10/0
[Cs]
-14.5 -20.7 59 -17 -17 1021.4 1012.0
09 15.12 ЮЗ 1 10 км 7 баллов -17.8 -21.3 74 -21 -21 1021.5 1012.0 -13.9
12 15.12 ЮЗ 1 4000 м слабый снег 10 баллов -18.1 -20.4 82 -21 -21 1021.5 1012.0
15 15.12 ЮЗ 1 4000 м слабый снег 10/0
[Cs]
-20.4 -22.4 84 -23 -23 1019.8 1010.2
18 15.12 штиль 0 10 км {снег} 10/0
[Cs]
-24.5 -27.1 79 -25 -25 1019.3 1009.5
21 15.12 штиль 0 10 км 10 баллов -28.2 -31.2 75 -28 -28 1019.2 1009.3 -28.2 0.6
00 16.12 З 1 20 км 6 баллов -23.3 -26.0 78 -27 -27 1019.0 1009.3 -28.3
03 16.12 Ю 2 20 км 3/0
[Ci fib]
-19.6 -23.9 69 -25 -23 1018.3 1008.7
06 16.12 З 3 20 км 9/0
[Ci]
-18.8 -23.2 68 -26 -26 1017.7 1008.2
09 16.12 ЮЗ 1 10 км ясно -25.0 -27.2 82 -29 -29 1019.1 1009.3 -17.9
12 16.12 штиль 0 4000 м в посл. час снег 10 баллов -24.8 -27.4 79 -25 -25 1020.5 1010.7
15 16.12 штиль 0 4000 м слабый снег 10/0
[Cs]
-21.8 -24.3 80 -22 -22 1019.4 1009.8
18 16.12 ЮЗ 1 4000 м слабый снег 10/0
[Cs]
-20.9 -23.4 80 -24 -24 1019.2 1009.6
21 16.12 ЮЗ 1 10 км ясно -24.7 -27.1 80 -28 -28 1020.5 1010.7 -27.4 0.2
00 17.12 Ю 1 20 км 10/0
[Cs]
-24.4 -27.0 79 -28 -28 1020.1 1010.4
03 17.12 ЮЗ 3 20 км 1/1 600 м
[Cu hum]
-19.3 -24.1 66 -27 -25 1019.7 1010.1
06 17.12 ЮЗ 2 20 км позёмок {метель} ясно -18.1 -24.0 60 -24 -23 1019.2 1009.7
09 17.12 Ю 2 10 км ясно -20.0 -24.5 67 -26 -26 1020.3 1010.7 -18.0
12 17.12 Ю 1 10 км {метель} ясно -21.7 -24.5 78 -25 -25 1019.9 1010.2
15 17.12 Ю 2 10 км ясно -20.0 -23.5 74 -26 -26 1019.0 1009.4
18 17.12 Ю 1 10 км 10/0
[Cs]
-19.7 -22.2 80 -23 -23 1018.7 1009.1
21 17.12 Ю 1 4000 м слабый снег 10/0
[Cs]
-20.6 -22.8 82 -24 -24 1017.4 1007.8 -23.0 0.4 20
00 18.12 Ю 2 4000 м слабый снег 10 баллов -19.3 -21.7 81 -25 -25 1018.8 1009.3
03 18.12 ЮЗ 3 4000 м слабый снег 10/0
[Cs]
-15.8 -19.6 73 -23 -21 1016.8 1007.4
06 18.12 ЮЗ 2 20 км {снег} 4/0
[Ci fib]
-16.4 -20.6 70 -22 -21 1015.7 1006.3
09 18.12 Ю 1 10 км 2 балла -20.8 -22.9 83 -24 -24 1017.6 1008.0 -15.4 0.5
12 18.12 Ю 2 10 км ясно -22.5 -25.1 79 -29 -29 1018.3 1008.6
15 18.12 ЮЗ 2 10 км ясно -23.0 -26.9 70 -29 -29 1018.3 1008.6
18 18.12 ЮЗ 2 10 км ясно -24.1 -28.1 69 -31 -31 опасность
обморожения
1018.7 1008.9

 

Местоположение метеостанции Георгиевка (Хабаровский край, Россия): широта 47.95 долгота 135.20 высота над уровнем моря 70 м.

В архиве по умолчанию представлена погода в Георгиевке за последнюю неделю. Архивные данные за месяц целиком и за предыдущие месяцы, начиная с января 2011 года, Вы можете получить, выбрав интересующий диапазон дат из раскрывающегося списка и нажав кнопку "Ввод!".

Внимание! Время в таблицах - всемирное. Для получения местного времени необходимо прибавить поправку, которая в Георгиевке равна 10 ч.

Смотрите также архив погоды в соседних городах и на ближайших метеорологических станциях:

Погода в Оборе (Хабаровский край, Россия) (34 км)
Погода в Бичевой (Хабаровский край, Россия) (36 км)
Погода в Бычихе (Хабаровский край, Россия) (48 км)
Погода в Хабаровске Аэр. Большой (Хабаровский край, Россия) (56 км)
Погода в Хабаровске 21 км (Хабаровский край, Россия) (59 км)
Погода в Вяземском (Хабаровский край, Россия) (61 км)
Погода в Князе-Волконском (Хабаровский край, Россия) (62 км)
Погода в Хабаровске АМС (Хабаровский край, Россия) (62 км)
Погода в Хабаровске Агромет (Хабаровский край, Россия) (64 км)
Погода в Хабаровске (Хабаровский край, Россия) (64 км)

Пояснения к столбцам:

Ветер - указаны скорость ветра в м/с - средняя за 10 мин, порывы в срок и между сроками (в фигурных скобках) и направление, откуда дует ветер: С - северный, СВ - северо-восточный, В - восточный, ЮВ - юго-восточный, Ю - южный, ЮЗ - юго-западный, З - западный, СЗ - северо-западный.
Видимость - горизонтальная дальность видимости в метрах или километрах. При видимости от 1 до 10 км при отсутствии осадков обычно наблюдается дымка, при ухудшении видимости до 1 км и менее - туман. В сухую погоду видимость может ухудшаться дымом, пылью или мглою.
Явления - указаны атмосферные явления, наблюдавшиеся в срок или в последний час перед сроком; фигурными скобками обозначены явления, наблюдавшиеся между сроками (за 1-3 часа до срока); квадратными скобками обозначены град или гололедные отложения с указанием их диаметра в мм.
Облачность - указаны через наклонную черту общая и нижняя облачность в баллах и высота нижней границы облаков в метрах; квадратными скобками обозначены формы облаков: Ci - перистые, Cs - перисто-слоистые, Cc - перисто-кучевые, Ac - высококучевые, As - высокослоистые, Sc - слоисто-кучевые, Ns - слоисто-дождевые, Cu - кучевые, Cb - кучево-дождевые. Подробнее классификацию облаков см. в Атласе облаков (PDF).
T - Температура воздуха - температура, измеренная на высоте 2 м над землей.
Td - Температура точки росы - температура, при понижении до которой содержащийся в воздухе водяной пар достигнет насыщения.
f - Относительная влажность воздуха - влажноcть воздуха, измеренная на высоте 2 м над землей.
Te - Эффективная температура - температура, которую ощущает одетый по сезону человек в тени. Характеристика душности погоды. При расчете учитывается влияние влажности воздуха и скорости ветра на теплоощущения человека.
Tes - Эффективная температура на солнце - температура, которую ощущает человек, с поправкой на солнечный нагрев. Характеристика знойности погоды. Зависит от высоты солнца над горизонтом, облачности и скорости ветра. Ночью, в пасмурную погоду, а также при ветре 12 м/с и более поправка равна нулю.
P - Атмосферное давление - приведенное к уровню моря атмосферное давление.
Po - Атмосферное давление - измеренное на уровне метеостанции атмосферное давление.
Tmin - Минимальная температура - минимум температуры воздуха на высоте 2 м над землей.
Tmax - Максимальная температура - максимум температуры воздуха на высоте 2 м над землей.
R - Количество осадков - Количество выпавших осадков за период времени, мм. При наведении курсора мыши на число - период времени, за который выпало указанное количество осадков.
R24 - Количество осадков - Количество выпавших осадков за 24 часа, мм.
S - Снежный покров - Высота снежного покрова, см. При наведении курсора мыши на число - состояние снежного покрова и степень покрытия местности в баллах.